DW2640 Weather Reports


Display with metric or nautical units.
time (UTC)temp
F
wind
direction
speed
MPH
gust
MPH
rain 1hr
in
rain 24hr
in
rain mn
in
humidity
%
barometer
mb
20260903194554 96 190 11.0 15.0 0.00 0.00 0.00 41 1007.6
20260903193052 95 150 7.0 18.0 0.00 0.00 0.00 44 1008.0
20260903191550 95 196 10.0 18.0 0.00 0.00 0.00 46 1008.3
20260903190046 94 183 6.0 18.0 0.00 0.00 0.00 45 1008.3
20260903184642 93 253 9.0 16.0 0.00 0.00 0.00 46 1008.5
20260903183040 93 242 9.0 18.0 0.00 0.00 0.00 47 1008.6
20260903181536 93 190 8.0 18.0 0.00 0.00 0.00 49 1008.8
20260903180034 92 165 9.0 16.0 0.00 0.00 0.00 48 1009.1
20260903174531 91 180 7.0 18.0 0.00 0.00 0.00 51 1009.4
20260903173028 92 181 10.0 19.0 0.00 0.00 0.00 49 1009.4
20260903171532 91 196 8.0 20.0 0.00 0.00 0.00 51 1009.7
20260903170023 90 224 9.0 20.0 0.00 0.00 0.00 52 1010.0
20260903164520 89 146 7.0 20.0 0.00 0.00 0.00 56 1009.9
20260903163017 88 191 9.0 20.0 0.00 0.00 0.00 55 1010.1
20260903161516 87 217 8.0 15.0 0.00 0.00 0.00 59 1010.4
20260903160012 87 158 10.0 16.0 0.00 0.00 0.00 59 1010.3
20260903154508 85 184 8.0 19.0 0.00 0.00 0.00 61 1010.4
20260903153006 85 249 9.0 19.0 0.00 0.00 0.00 62 1010.4
20260903151509 85 167 11.0 21.0 0.00 0.00 0.00 63 1010.4
20260903150005 84 136 8.0 16.0 0.00 0.00 0.00 65 1010.4
20260903144559 83 206 6.0 16.0 0.00 0.00 0.00 66 1010.3
20260903143056 82 223 10.0 18.0 0.00 0.00 0.00 68 1010.4
20260903141551 81 172 8.0 15.0 0.00 0.00 0.00 70 1010.5
20260903140048 80 180 7.0 15.0 0.00 0.00 0.00 70 1010.6
20260903134551 79 240 7.0 14.0 0.00 0.00 0.00 72 1010.7
20260903133049 79 169 6.0 10.0 0.00 0.00 0.00 73 1010.7
20260903131539 78 201 6.0 10.0 0.00 0.00 0.00 74 1010.8
20260903130035 77 163 6.0 11.0 0.00 0.00 0.00 75 1010.7
20260903123037 76 199 4.0 10.0 0.00 0.00 0.00 76 1010.4
20260903121548 76 184 3.0 8.0 0.00 0.00 0.00 75 1010.2
20260903120044 76 200 4.0 10.0 0.00 0.00 0.00 74 1010.3
20260903114532 76 184 4.0 8.0 0.00 0.00 0.00 74 1010.1
20260903113028 76 175 4.0 8.0 0.00 0.00 0.00 73 1010.1
20260903111526 77 215 2.0 7.0 0.00 0.00 0.00 72 1010.0
20260903110024 77 171 3.0 7.0 0.00 0.00 0.00 71 1010.0
20260903104524 77 232 2.0 6.0 0.00 0.00 0.00 71 1009.9
20260903103021 78 177 2.0 6.0 0.00 0.00 0.00 70 1009.7
20260903101518 78 181 4.0 7.0 0.00 0.00 0.00 69 1009.8
20260903100017 79 229 4.0 8.0 0.00 0.00 0.00 68 1009.7
20260903094515 79 232 3.0 8.0 0.00 0.00 0.00 68 1009.6
20260903093013 79 123 4.0 9.0 0.00 0.00 0.00 67 1009.7
20260903091513 80 171 4.0 8.0 0.00 0.00 0.00 66 1009.6
20260903090010 80 188 4.0 10.0 0.00 0.00 0.00 65 1009.4
20260903084509 80 192 5.0 10.0 0.00 0.00 0.00 64 1009.4
20260903083008 80 157 3.0 9.0 0.00 0.00 0.00 64 1009.3
20260903081505 80 175 6.0 10.0 0.00 0.00 0.00 63 1009.4
20260903080004 80 159 5.0 12.0 0.00 0.00 0.00 62 1009.3
20260903074506 80 176 5.0 10.0 0.00 0.00 0.00 61 1009.5
20260903073001 80 159 4.0 9.0 0.00 0.00 0.00 62 1009.4
20260903071502 80 180 4.0 7.0 0.00 0.00 0.00 62 1009.4
20260903070114 80 182 4.0 7.0 0.00 0.00 0.00 61 1009.4
20260903064557 80 186 3.0 6.0 0.00 0.00 0.00 61 1009.3
20260903063105 80 192 2.0 10.0 0.00 0.00 0.00 60 1009.3
20260903061605 81 183 3.0 6.0 0.00 0.00 0.00 60 1009.3
20260903060050 81 185 2.0 6.0 0.00 0.00 0.00 59 1009.3
20260903054548 82 156 3.0 7.0 0.00 0.00 0.00 58 1009.2
20260903053047 82 146 4.0 7.0 0.00 0.00 0.00 57 1009.2
20260903051541 83 190 3.0 7.0 0.00 0.00 0.00 56 1009.3
20260903050039 84 165 4.0 8.0 0.00 0.00 0.00 55 1009.4
20260903044545 84 174 4.0 8.0 0.00 0.00 0.00 54 1009.1
20260903043037 85 160 6.0 10.0 0.00 0.00 0.00 53 1009.2
20260903041543 85 147 5.0 10.0 0.00 0.00 0.00 52 1009.0
20260903040037 86 169 7.0 13.0 0.00 0.00 0.00 51 1009.2
20260903034537 86 144 7.0 13.0 0.00 0.00 0.00 50 1009.2
20260903033035 86 167 8.0 13.0 0.00 0.00 0.00 50 1009.1
20260903031535 86 178 7.0 13.0 0.00 0.00 0.00 50 1009.2
20260903030035 86 156 6.0 9.0 0.00 0.00 0.00 50 1009.2
20260903024534 86 178 5.0 8.0 0.00 0.00 0.00 49 1009.0
20260903023035 87 144 4.0 8.0 0.00 0.00 0.00 49 1009.0
20260903021535 87 155 4.0 7.0 0.00 0.00 0.00 48 1008.6
20260903020039 88 155 4.0 7.0 0.00 0.00 0.00 47 1008.4
20260903014545 89 154 2.0 7.0 0.00 0.00 0.00 46 1008.1
20260903013033 90 159 4.0 8.0 0.00 0.00 0.00 44 1008.0
20260903011535 91 192 5.0 9.0 0.00 0.00 0.00 43 1007.9
20260903010034 92 180 4.0 12.0 0.00 0.00 0.00 42 1008.1
20260903004533 93 176 5.0 10.0 0.00 0.00 0.00 41 1007.9
20260903003029 94 190 5.0 13.0 0.00 0.00 0.00 39 1008.0
20260903001529 95 201 5.0 12.0 0.00 0.00 0.00 38 1008.1
20260903000028 96 129 7.0 14.0 0.00 0.00 0.00 37 1008.0
20260902234527 97 200 7.0 13.0 0.00 0.00 0.00 37 1008.0
20260902233030 97 185 9.0 16.0 0.00 0.00 0.00 36 1007.8
20260902231540 98 206 6.0 15.0 0.00 0.00 0.00 36 1008.1
20260902230028 98 212 7.0 15.0 0.00 0.00 0.00 36 1008.0
20260902224525 98 180 9.0 16.0 0.00 0.00 0.00 35 1007.9
20260902223034 99 342 10.0 15.0 0.00 0.00 0.00 33 1008.1
20260902221528 99 182 5.0 15.0 0.00 0.00 0.00 33 1008.2
20260902220031 99 219 8.0 14.0 0.00 0.00 0.00 33 1008.2
20260902214523 98 205 6.0 15.0 0.00 0.00 0.00 34 1008.5
20260902213019 98 233 6.0 16.0 0.00 0.00 0.00 33 1008.7
20260902211518 99 180 6.0 15.0 0.00 0.00 0.00 34 1008.7
20260902210016 98 175 8.0 16.0 0.00 0.00 0.00 34 1008.9
20260902204515 99 211 10.0 16.0 0.00 0.00 0.00 34 1009.2
20260902203014 98 251 8.0 18.0 0.00 0.00 0.00 34 1009.2
20260902201511 99 268 10.0 19.0 0.00 0.00 0.00 33 1009.5
20260902200010 98 167 9.0 18.0 0.00 0.00 0.00 35 1009.7